Weather in Veliky Bichkov

Ukraine / Zakarpattia District     47°58′18″N   24°00′02″E
temp.,
°C
wind,
m/s
gust,
m/s
humid.,
%
clouds,
%
prec.,
mm/h
press.,
hPa
HPBL,
m
26 february, fri
fri2623:00+4e11840 0.0 103222
02:00+3e11840 0.0 103222
05:00+3e11830 0.0 103022
08:00+3e11790 0.0 103022
11:00+10sse11610 0.0 1028240
14:00+13nnw11550 0.0 1026567
17:00+10nnw11680 0.0 102422
20:00+6n11830 0.0 102422
27 february, sat
sat2723:00+5e11874 0.0 102422
02:00+5se118820 0.0 102422
05:00+5s119099 0.1 102322
08:00+4nnw1295100 3.8 1024137
11:00+6wnw346967 0.4 1025904
14:00+6wnw556177 0.4 10251192
17:00+5wnw576671 0.1 1025815
20:00+1nw248367 0.1 1027108
28 february, sun
sun2823:000nw128752 0.0 102830
02:00−1nw119026 0.0 103026
05:00−1wnw119110 0.0 102924
08:00−1nw11855 0.0 103183
11:00+4wnw22580 0.0 1031805
14:00+5wnw23545 0.0 10311012
17:00+3wnw23666 0.0 1031475
20:000n11815 0.0 103322
1 march, mon
mon123:00−1nne12830 0.0 103438
02:00−2nne11770 0.0 103433
05:00−2nne11714 0.0 103424
08:00−1n01642 0.0 103447
11:00+4w12460 0.0 1033481
14:00+6wnw22505 0.0 1033920
17:00+4nne127489 0.0 1033114
20:000ene119069 0.0 103522
2 march, tue
tue223:000ene11900 0.0 103622
02:00−1ene11887 0.0 103622
05:00−1ese01895 0.0 103722
08:000e11843 0.0 103726
11:00+5wsw11610 0.0 1036442
14:00+7wnw11570 0.0 1035661
17:00+6wnw126920 0.0 103442
20:00+1ne018511 0.0 103522